Regional Weather Roundup
Issued by NWS Midland/Odessa, TX

Skip options and go directly to product.
Home | Oldest Version | Next Version | Current Version | All | Text Only | Save Text | Print | Product List | Glossary On

Skip product version selection by date and time.   
201
ASUS44 KMAF 190510
RWRMAF
MIDLAND AREA WEATHER ROUNDUP
NATIONAL WEATHER SERVICE MIDLAND TX
1200 AM CDT SAT APR 19 2014

...IN SOUTHWEST TEXAS AND SOUTHEAST NEW MEXICO...

CITY           SKY/WX    TMP DP  RH WIND       PRES   REMARKS
ALPINE         PTCLDY    59  48  67 SE6       30.17S
ANDREWS        FAIR      58  43  57 SE6       30.10S
ARTESIA        CLOUDY    64  45  48 S10       30.06S
BIG SPRING     CLEAR     64  42  45 E13       30.12F
CARLSBAD       CLOUDY    68  45  43 SE12      30.04F
DRYDEN           N/A     67  51  56 E10       30.07S
FORT STOCKTON  MOCLDY    64  48  56 SE21G31   30.07F
GUAD PASS      CLOUDY    59  45  59 NE32      30.12S
HOBBS          MOCLDY    59  43  55 SE10      30.11R
MARFA          CLEAR     57  46  67 S7        30.15S
MIDLAND AIRPK  MOCLDY    65  45  48 SE10      30.12R
MIDLAND INTL   MOCLDY    63  44  50 SE13      30.10R
ODESSA         MOCLDY    66  46  48 S14       30.10S
PECOS          CLOUDY    66  48  52 SE18G26   30.03F
PRESIDIO       FAIR      70  51  50 NE13G23   30.01S
SEMINOLE       PTCLDY    59  43  56 SE9       30.11R
SNYDER         CLEAR     60  43  53 SE9       30.12S
WINK           CLOUDY    68  47  46 SE17G25   30.04F
$$
...OTHER STATIONS IN TEXAS...

CITY           SKY/WX    TMP DP  RH WIND       PRES   REMARKS
ABILENE        CLEAR     60  47  61 SE10      30.13R
AMARILLO       CLOUDY    60  43  53 S21       30.08F
AUSTIN         PTCLDY    55  54  96 CALM      30.14F
BROWNSVILLE    MOCLDY    63  61  93 CALM      30.14S
CORPUS CHRISTI MOCLDY    61  56  83 S3        30.15R
DALLAS FTW     MOCLDY    62  47  57 CALM      30.14F
DEL RIO        MOCLDY    71  52  50 SE8       30.07R
EL PASO        LGT RAIN  73  38  27 S12       30.02R
HOUSTON INT    PTCLDY    62  54  74 E7        30.14R
LUBBOCK        MOCLDY    57  41  55 SE12      30.10F
SAN ANGELO     CLEAR     64  44  48 SE8       30.11R
SAN ANTONIO    PTCLDY    65  55  70 E6        30.14S
WACO           PTCLDY    54  51  90 CALM      30.14S
WICHITA FALLS  NOT AVBL
$$
...OTHER LOCATIONS IN NEW MEXICO...

CITY           SKY/WX    TMP DP  RH WIND       PRES   REMARKS
ALAMAGORDO     CLOUDY    63  48  59 NW3       30.05S
ALBUQUERQUE    LGT RAIN  62  36  37 W29G37    30.14R
CANNON AFB     NOT AVBL
CLOVIS         CLOUDY    54  43  66 S8        30.13S
HOLLOMAN AFB   MOCLDY    61  52  72 NE6       30.04S
ROSWELL        CLOUDY    65  44  46 SE9       30.06R
RUIDOSO        CLOUDY    54  41  62 SW13G22   30.23S
SANTA FE       CLOUDY    60  28  29 SW20G28   30.12R
TRUTH OR CONSE CLOUDY    65  29  25 CALM      30.07R
TUCUMCARI      MOCLDY    63  44  50 S20G30    30.03S
$$

USA.gov is the U.S. government's official web portal to all federal, state and local government web resources and services.